Location: Lalanga
(4.5882°N, 32.9072°E)
Time: 13:35:48
(UTC+00:00)

ARIANE 5 R/B - Pass Details

Date: 24 January 2020
Orbit: 242 x 31953 km, 2.8° (Epoch: 26 February)

Event Time Altitude Azimuth Distance (km) Brightness Sun altitude
Rises 16:13:04 0° 265° (W) 16,714 11.8 -4.5°
Reaches altitude 10° 16:38:55 10° 262° (W) 8,897 9.9 -10.6°
Maximum altitude 16:57:54 54° 189° (S) 1,243 4.2 -15.1°
Enters shadow 17:00:44 18° 114° (ESE) 1,536 4.2 -15.7°
